Location: D�bersing
(49.2868°N, 12.7395°E)
Time: 18:41:12
(UTC+00:00)

Daily predictions for brighter satellites

Satellite Brightness Start Highest point End
(mag) Time Altitude Azimuth Time Altitude Azimuth Time Altitude Azimuth
STARLINK-81 4.0 17:10:17 10° W 17:14:15 57° NNW 17:18:14 10° ENE
Gbstr 26 Del rocket 4.0 17:11:21 10° SSW 17:14:49 30° SE 17:18:47 10° ENE
STARLINK-1048 3.6 17:11:56 10° W 17:15:18 53° NNW 17:18:40 10° ENE
STARLINK-1044 3.7 17:11:42 10° WSW 17:15:50 78° SSE 17:19:59 10° ENE
USA 234 3.9 17:09:45 10° ENE 17:16:01 50° NNW 17:22:16 10° W
STARLINK-54 4.0 17:12:09 10° W 17:16:06 55° NNW 17:20:05 10° ENE
STARLINK-1049 3.7 17:14:04 10° W 17:17:26 52° NNW 17:20:48 10° ENE
STARLINK-77 4.0 17:13:36 10° W 17:17:34 56° NNW 17:21:33 10° ENE
Cosmos 405 4.0 17:14:35 10° NNE 17:17:37 26° ENE 17:20:38 10° SE
STARLINK-1027 3.7 17:13:33 10° WSW 17:17:49 88° SSE 17:22:06 10° ENE
Cosmos 2369 Rocket 2.3 17:12:47 10° SSW 17:18:28 90° ESE 17:24:14 10° NNE
STARLINK-25 4.0 17:15:15 10° W 17:19:13 55° NNW 17:23:11 10° ENE
STARLINK-1051 3.7 17:16:14 10° W 17:19:36 51° NNW 17:22:58 10° ENE
STARLINK-71 4.0 17:17:09 10° W 17:21:07 53° N 17:25:04 10° ENE
Cosmos 1812 3.5 17:17:23 10° NNW 17:21:13 58° W 17:25:00 10° S
STARLINK-1028 3.7 17:17:52 10° W 17:21:15 51° NNW 17:24:38 10° ENE
STARLINK-79 4.0 17:18:36 10° W 17:22:34 54° N 17:26:32 10° ENE
Cosmos 1898 Rocket 3.8 17:18:07 10° NNW 17:23:06 44° ENE 17:28:03 10° SE
NOSS 2-3 (D) 3.7 17:19:01 10° SSW 17:23:20 72° SE 17:28:31 10° NE
STARLINK-1021 3.7 17:20:04 10° W 17:23:27 50° N 17:26:49 10° ENE
Cosmos 44 Rocket 3.5 17:18:56 10° NNW 17:23:34 50° NE 17:28:13 10° ESE
STARLINK-78 4.0 17:20:17 10° W 17:24:14 54° N 17:28:12 10° ENE
Cosmos 2242 Rocket 3.7 17:20:04 10° N 17:24:35 58° ENE 17:29:05 10° SSE
STARLINK-1019 3.7 17:22:17 10° W 17:25:38 49° N 17:29:01 10° ENE
STARLINK-1037 3.6 17:21:33 10° WSW 17:25:42 87° SSE 17:29:52 10° ENE
USA 229 DEB 4.1 17:19:25 10° SW 17:25:59 66° NW 17:32:56 10° NE
STARLINK-57 4.1 17:22:02 10° W 17:25:59 53° N 17:29:57 10° ENE
USA 229 4.1 17:19:32 10° SW 17:26:05 66° NW 17:33:02 10° NE
Cosmos 1703 Rocket 4.1 17:22:38 10° N 17:26:52 39° ENE 17:31:05 10° SE
STARLINK-49 4.0 17:23:35 10° W 17:27:33 53° N 17:31:30 10° ENE
SJ 16-02 1.8 17:23:35 10° N 17:27:45 40° ENE 17:31:54 10° SE
STARLINK-1012 3.8 17:24:30 10° W 17:27:52 49° N 17:31:15 10° ENE
CENTAUR R/B 4.0 17:21:26 10° NW 17:28:00 32° NNE 17:35:20 10° E
STARLINK-48 3.9 17:25:20 10° WNW 17:29:09 51° N 17:32:51 11° E
STARLINK-27 4.1 17:25:14 10° W 17:29:11 53° N 17:33:09 10° ENE
ARGOS 4.3 17:26:00 10° ESE 17:30:15 24° ENE 17:34:29 10° N
STARLINK-1059 3.6 17:26:37 10° WSW 17:30:46 89° NNW 17:34:56 10° ENE
STARLINK-74 4.1 17:26:55 10° W 17:30:52 52° N 17:34:49 10° ENE
Aureole 2 Rocket 3.7 17:28:42 10° SW 17:31:08 31° WNW 17:33:40 10° N
Okean-O 3.7 17:27:36 10° S 17:31:55 50° W 17:36:15 10° NNW
STARLINK-1026 3.8 17:28:56 10° W 17:32:17 48° N 17:35:36 10° ENE
STARLINK-39 4.1 17:28:34 10° W 17:32:31 52° N 17:36:24 10° ENE
STARLINK-1054 4.4 17:28:52 10° SSW 17:32:38 34° SE 17:36:12 11° ENE
STARLINK-1023 3.7 17:29:48 10° W 17:33:00 45° N 17:36:06 11° ENE
NOSS 3-1 (A) 3.5 17:27:26 10° SW 17:33:04 80° NW 17:39:43 10° NE
STARLINK-31 4.1 17:30:16 10° W 17:34:13 51° N 17:38:02 11° ENE
USA 186 3.5 17:34:04 11° ENE 17:34:29 12° ENE 17:35:34 10° NE
STARLINK-1013 3.8 17:31:11 10° W 17:34:33 47° N 17:37:46 11° ENE
STARLINK-61 4.1 17:31:10 10° WNW 17:34:57 47° N 17:38:30 12° ENE
Cosmos 1939 Rocket 2.9 17:31:19 10° SSE 17:35:26 73° ENE 17:39:36 10° N
STARLINK-1057 3.6 17:31:36 10° WSW 17:35:45 85° NNW 17:39:48 11° ENE
STARLINK-26 3.6 17:32:36 10° WNW 17:35:59 48° N 17:38:56 13° E
STARLINK-69 4.1 17:32:08 10° W 17:36:04 50° N 17:39:47 11° ENE
STARLINK-1009 3.8 17:33:25 10° W 17:36:47 47° N 17:39:54 12° ENE
STARLINK-21 4.1 17:33:37 10° W 17:37:34 51° N 17:41:14 12° ENE
STARLINK-1062 4.3 17:33:46 10° SSW 17:37:35 37° SE 17:40:59 12° ENE
CSL-04 Rocket 3.7 17:32:40 10° SSE 17:38:10 80° ENE 17:43:39 10° NNW
STARLINK-1015 3.8 17:35:40 10° W 17:39:02 46° N 17:42:04 12° ENE
STARLINK-45 4.1 17:35:31 10° W 17:39:27 50° N 17:43:01 12° ENE
STARLINK-1034 3.7 17:36:34 10° WSW 17:40:43 81° NNW 17:44:34 12° ENE
STARLINK-70 4.1 17:37:04 10° W 17:41:00 50° N 17:44:30 13° ENE
STARLINK-76 4.1 17:38:36 10° W 17:42:32 50° N 17:45:59 13° ENE
STARLINK-1053 4.2 17:38:40 10° SSW 17:42:33 40° SE 17:45:47 14° ENE
ATLAS 3B R/B 4.0 17:37:27 10° NW 17:42:52 25° NNE 17:48:15 10° ENE
CZ-2D R/B 3.2 17:39:14 10° SSE 17:43:08 84° ENE 17:47:02 10° NNW
STARLINK-1014 3.8 17:40:41 10° W 17:44:09 49° N 17:47:04 13° ENE
STARLINK-23 4.1 17:40:16 10° W 17:44:11 50° N 17:47:34 13° ENE
CZ-2C R/B 4.0 17:40:38 10° ESE 17:45:36 31° ENE 17:50:27 10° N
STARLINK-80 3.5 17:41:52 10° WNW 17:45:41 66° NNE 17:48:42 15° E
STARLINK-1068 3.7 17:41:33 10° WSW 17:45:42 78° NNW 17:49:21 13° ENE
STARLINK-32 4.1 17:41:54 10° W 17:45:50 50° N 17:49:08 14° ENE
CZ-4 R/B 2.2 17:42:38 10° S 17:46:46 58° W 17:50:51 10° NNW
STARLINK-1061 4.1 17:43:34 10° SW 17:47:29 42° SE 17:50:33 15° ENE
STARLINK-40 4.1 17:43:35 10° W 17:47:31 49° N 17:50:45 14° ENE
STARLINK-44 4.1 17:45:14 10° W 17:49:10 49° N 17:52:20 15° ENE
Lacrosse 4 Rocket 4.1 17:46:53 10° WNW 17:49:29 15° NNW 17:52:07 10° N
YAOGAN 1 2.9 17:46:37 10° S 17:50:56 69° WSW 17:55:15 10° NNW
STARLINK-37 4.1 17:47:02 10° W 17:50:58 49° N 17:54:02 16° ENE
Cosmos 1633 Rocket 4.5 17:47:00 10° SW 17:51:07 42° WNW 17:55:17 10° N
CRYOSAT 2 4.3 17:46:32 10° S 17:51:26 84° E 17:56:23 10° N
STARLINK-1067 4.0 17:48:29 10° SW 17:52:26 45° SE 17:55:20 17° ENE
STARLINK-36 4.1 17:48:33 10° W 17:52:28 49° N 17:55:30 16° ENE
STARLINK-64 3.9 17:49:12 10° WNW 17:52:40 44° N 17:55:09 17° ENE
Ariane Rocket 3.2 17:48:56 10° SE 17:53:52 51° ENE 17:58:49 10° N
STARLINK-33 3.7 17:50:50 10° WNW 17:53:59 42° N 17:56:01 19° ENE
STARLINK-68 4.1 17:50:26 10° WNW 17:54:22 48° N 17:57:17 17° ENE
STARLINK-55 3.7 17:52:13 10° WNW 17:55:22 43° N 17:57:20 20° ENE
SJ-6B 3.9 17:53:43 17° ESE 17:55:29 23° ENE 17:58:33 10° NNE
STARLINK-1060 3.8 17:51:32 10° WSW 17:55:40 72° NNW 17:58:55 16° ENE
STARLINK-63 4.1 17:51:59 10° WNW 17:55:54 48° N 17:58:46 17° ENE
USA 116 4.0 17:52:04 10° NNE 17:56:15 88° ESE 18:00:57 10° SSW
STARLINK-66 3.7 17:53:06 10° WNW 17:56:16 43° N 17:58:12 20° ENE
STARLINK-28 3.7 17:53:49 10° WNW 17:56:59 44° N 17:58:52 21° ENE
STARLINK-1058 3.9 17:53:24 10° SW 17:57:23 49° SE 18:00:06 19° ENE
STARLINK-35 4.1 17:53:32 10° W 17:57:28 49° N 18:00:16 18° ENE
NOSS 2-3 (C) 4.2 17:53:05 10° SW 17:57:30 65° NW 18:02:54 10° NE
Cosmos 990 Rocket 3.9 17:52:25 10° NNW 17:57:36 80° ENE 18:02:44 10° SSE
STARLINK-42 3.7 17:54:41 10° WNW 17:57:48 42° N 17:59:38 20° ENE
FREGAT/IRIS 3.5 17:57:40 24° E 17:57:58 24° ENE 18:00:16 10° NNE
STARLINK-51 4.1 17:55:12 10° WNW 17:59:08 48° N 18:01:52 18° ENE
STARLINK-1029 3.8 17:56:50 10° W 17:59:53 42° N 18:01:47 19° ENE
STARLINK-1007 3.9 17:57:25 10° WNW 18:00:38 42° N 18:02:38 20° ENE
STARLINK-1030 3.8 17:56:33 10° WSW 18:00:42 69° NNW 18:03:43 18° ENE
STARLINK-30 4.1 17:56:53 10° WNW 18:00:48 48° N 18:03:27 19° ENE
Cosmos 1943 Rocket 3.5 17:55:58 10° WSW 18:01:09 39° NW 18:06:21 10° NNE
Cosmos 2297 Rocket 3.1 17:56:54 10° NNW 18:01:55 30° NE 18:04:59 19° E
Cosmos 1933 Rocket 3.7 17:57:36 10° SSW 18:02:00 78° W 18:06:24 10° N
STARLINK-1043 3.9 17:58:20 10° SW 18:02:21 52° SSE 18:04:53 21° ENE
STARLINK-72 4.1 17:58:33 10° WNW 18:02:28 48° N 18:05:03 19° ENE
STARLINK-50 4.1 18:00:13 10° WNW 18:04:08 48° N 18:06:39 20° ENE
SJ-11-01 4.3 17:59:50 10° SSE 18:04:24 59° ENE 18:09:01 10° N
Nadezhda 4 Rocket 4.1 17:58:39 10° N 18:04:51 55° ENE 18:11:03 10° SSE
NOSS 2 (A) 4.5 18:02:37 10° NW 18:05:07 59° SW 18:06:38 19° SSE
STARLINK-1020 3.8 18:01:32 10° W 18:05:39 66° NNW 18:08:30 19° ENE
STARLINK-59 4.1 18:01:58 10° WNW 18:05:54 48° N 18:08:19 21° ENE
STARLINK-1065 3.8 18:03:05 10° SW 18:07:08 55° SSE 18:09:29 23° ENE
STARLINK-56 4.1 18:03:32 10° WNW 18:07:28 48° N 18:09:50 21° ENE
Cosmos 1340 4.1 18:05:21 10° SW 18:08:55 40° WNW 18:12:30 10° N
STARLINK-73 4.1 18:05:12 10° WNW 18:09:07 48° N 18:11:25 22° ENE
IRS-1A Rocket 4.2 18:04:06 10° SSE 18:09:32 66° ENE 18:15:01 10° N
Cosmos 1346 Rocket 3.7 18:06:01 10° SSW 18:09:53 52° WNW 18:13:46 10° N
STARLINK-1010 3.8 18:06:49 10° WNW 18:09:57 41° N 18:11:28 24° NE
STARLINK-1052 3.9 18:06:32 10° W 18:10:39 64° NNW 18:13:16 21° ENE
STARLINK-38 4.1 18:06:53 10° WNW 18:10:48 48° N 18:13:02 23° ENE
STARLINK-1063 3.7 18:08:11 10° SW 18:12:15 59° SSE 18:14:25 26° ENE
Cosmos 1937 Rocket 3.4 18:07:05 10° NNW 18:12:23 78° ENE 18:17:34 10° SSE
STARLINK-65 4.1 18:08:31 10° WNW 18:12:27 48° N 18:14:36 24° ENE
Cosmos 1464 Rocket 4.0 18:06:25 10° S 18:12:46 74° E 18:19:09 10° NNE
STARLINK-1047 3.9 18:08:51 10° W 18:12:59 62° NNW 18:15:33 22° ENE
STARLINK-53 4.1 18:10:17 10° WNW 18:14:13 48° N 18:16:17 25° ENE
Cosmos 1515 3.9 18:11:18 10° N 18:14:58 45° ENE 18:17:27 18° SE
ADEOS Rocket 3.6 18:07:16 10° NNE 18:15:08 85° ESE 18:22:45 10° SSW
Genesis I 3.3 18:11:37 10° NNW 18:15:26 54° NE 18:17:06 29° ESE
MONITOR-E 4.1 18:16:07 42° ENE 18:16:07 42° ENE 18:18:38 10° N
USA 238 DEB 4.0 18:10:03 10° NW 18:17:02 55° NE 18:21:52 22° ESE
USA 238 4.0 18:10:09 10° NW 18:17:07 55° NE 18:21:55 22° ESE
STARLINK-1064 3.6 18:13:08 10° SW 18:17:13 63° SSE 18:19:12 29° ENE
Meteor 2-11 Rocket 4.3 18:12:57 10° S 18:19:02 79° E 18:25:08 10° NNE
STARLINK-1033 3.9 18:16:31 10° W 18:20:38 60° NNW 18:22:50 26° ENE
Cosmos 2227 Rocket 2.9 18:15:58 10° NNW 18:21:10 36° NE 18:23:26 26° E
Meteor 1-20 Rocket 4.3 18:15:56 10° SSW 18:21:26 79° WNW 18:27:04 10° N
STARLINK-1041 3.6 18:18:05 10° SW 18:22:11 68° SSE 18:23:59 32° ENE
SL-24 DEB 4.3 18:20:23 10° SSE 18:24:55 52° E 18:29:26 10° N
Cosmos 2221 Rocket 3.7 18:20:54 10° N 18:25:21 53° ENE 18:28:33 18° SSE
Cosmos 1656 Rocket 4.2 18:19:58 10° SW 18:25:27 60° WNW 18:31:03 10° NNE
STARLINK-1038 3.5 18:23:01 10° SW 18:27:08 72° SSE 18:28:45 35° ENE
STARLINK-1024 4.0 18:26:34 10° W 18:30:39 57° NNW 18:32:25 31° NE
H-2A R/B 2.1 18:25:34 10° SSE 18:30:57 74° ENE 18:36:25 10° N
STARLINK-1046 3.5 18:28:00 10° WSW 18:32:08 76° SSE 18:33:33 40° ENE
STARLINK 1040 3.5 18:29:58 10° WNW 18:32:37 37° N 18:32:39 37° N
Cosmos 2034 Rocket 3.8 18:29:10 10° S 18:35:17 78° E 18:41:28 10° NNE
STARLINK-22 3.5 18:32:42 10° WNW 18:35:54 47° N 18:36:16 45° NNE
Cosmos 372 Rocket 4.0 18:31:44 10° NNW 18:36:56 57° ENE 18:39:10 32° SE
STARLINK-1039 3.5 18:33:00 10° WSW 18:37:08 80° SSE 18:38:22 44° ENE
STARLINK-41 3.4 18:34:11 10° WNW 18:37:25 49° NNE 18:37:41 47° NNE
STARLINK-1016 3.7 18:34:58 10° WNW 18:38:16 43° N 18:38:43 40° NNE
Cosmos 220 Rocket 3.9 18:34:10 10° SSW 18:38:28 89° W 18:42:46 10° NNE
STARLINK-1008 3.7 18:36:39 10° WNW 18:39:57 43° N 18:40:20 41° NNE
STARLINK-1032 4.1 18:36:34 10° W 18:40:39 54° N 18:41:59 36° NE
STARLINK-75 3.3 18:38:31 10° WNW 18:41:50 54° NNE 18:41:58 53° NNE
STARLINK-1045 3.5 18:37:57 10° WSW 18:42:06 85° SSE 18:43:08 50° ENE
STARLINK-58 3.6 18:39:29 10° WNW 18:42:58 50° N 18:43:17 48° NNE
STARLINK-24 4.0 18:39:06 10° WNW 18:43:03 51° N 18:43:51 43° NE
STARLINK-1025 3.7 18:40:49 10° WNW 18:44:07 44° N 18:44:21 43° NNE
Resurs 1-3 4.0 18:44:37 42° ENE 18:44:37 42° ENE 18:48:44 10° N
STARLINK-62 3.6 18:41:12 10° WNW 18:44:41 51° NNE 18:44:55 50° NNE
STARLINK-1011 4.1 18:41:33 10° W 18:45:37 53° N 18:46:45 39° NE
STARLINK-1017 3.7 18:42:54 10° WNW 18:46:13 44° N 18:46:21 44° NNE
STARLINK-34 3.5 18:42:49 10° WNW 18:46:18 51° N 18:46:29 51° NNE
STARLINK-1050 3.5 18:42:58 10° WSW 18:47:07 89° NW 18:47:59 55° ENE
Lacrosse 5 rocket 1.8 18:42:45 10° NW 18:47:16 57° NNE 18:48:11 47° ENE
STARLINK-1035 4.2 18:43:13 10° W 18:47:23 53° N 18:48:33 39° NE
Okean 1-7 4.5 18:43:22 10° NNW 18:47:24 39° W 18:51:26 10° SSW
STARLINK-1031 4.1 18:43:36 10° W 18:47:38 51° N 18:48:37 40° NE
Cosmos 468 Rocket 4.4 18:43:02 10° SSW 18:48:18 66° WNW 18:53:37 10° NNE
MetOp-A 4.2 18:46:49 37° SE 18:48:40 54° ENE 18:53:54 10° N
Cosmos 2219 3.1 18:43:52 10° NNW 18:49:39 75° ENE 18:52:15 34° SE
STARLINK-1036 4.1 18:46:34 10° W 18:50:37 52° N 18:51:32 42° NE
STARLINK-1055 3.5 18:47:56 10° WSW 18:52:06 86° NNW 18:52:45 62° ENE
STARLINK-1048 3.8 18:49:16 10° WNW 18:52:29 45° N 18:52:29 45° N
Cosmos 1092 Rocket 3.9 18:46:23 10° N 18:52:47 77° E 18:58:47 12° SSE
MOS 1 4.5 18:48:00 10° S 18:53:40 73° WSW 18:59:20 10° NNW
STARLINK-81 3.9 18:49:50 10° WNW 18:53:47 52° N 18:54:10 50° NNE
Lacrosse 5 1.7 18:49:06 10° SW 18:54:11 75° SE 18:55:38 47° ENE
STARLINK-1049 3.8 18:51:25 10° WNW 18:54:32 45° N 18:54:32 45° N
STARLINK-1044 4.1 18:51:34 10° W 18:55:37 51° N 18:56:19 45° NNE
STARLINK-54 3.8 18:51:41 10° WNW 18:55:39 54° N 18:55:56 52° NNE
Meteor 2-4 Rocket 3.9 18:50:52 10° NNW 18:56:50 81° W 19:02:46 10° S
STARLINK-1051 3.9 18:53:35 10° WNW 18:56:37 45° N 18:56:37 45° N
STARLINK-1022 3.5 18:52:55 10° WSW 18:57:04 82° NNW 18:57:32 69° NE
STARLINK-77 3.9 18:53:09 10° WNW 18:57:06 53° N 18:57:20 52° NNE
STARLINK-1027 4.2 18:53:56 10° W 18:58:06 51° N 18:58:47 46° NNE
USA 234 3.8 18:55:20 29° ENE 18:58:24 48° N 19:04:37 10° WNW
STARLINK-1028 3.9 18:55:15 10° WNW 18:58:14 44° NNW 18:58:14 44° NNW
STARLINK-25 3.9 18:54:48 10° WNW 18:58:46 53° N 18:58:55 53° NNE
Cosmos 1634 Rocket 4.0 18:52:56 10° SSE 18:59:02 55° E 19:05:13 10° NNE
Cosmos 2263 Rocket 4.0 18:55:56 10° N 18:59:23 16° NNE 18:59:45 16° NE
GP-B 4.0 19:01:33 35° NNE 19:01:33 35° NNE 19:04:24 10° N
CZ-2C R/B 4.4 18:55:36 10° NNE 18:57:07 18° NE 18:57:07 18° NE
STARLINK-71 3.8 18:56:40 10° WNW 19:00:39 55° N 19:00:42 55° NNE
STARLINK-1021 4.0 18:57:27 10° WNW 19:00:21 44° NNW 19:00:21 44° NNW
Gbstr 26 Del rocket 3.0 18:57:03 10° WSW 19:01:17 85° NNW 19:02:07 61° ENE
STARLINK-1042 3.5 18:57:56 10° WSW 19:02:05 78° NNW 19:02:20 74° NNE
Cosmos 1814 Rocket 3.8 18:57:00 10° SSW 19:02:06 74° ESE 19:07:16 10° NNE
STARLINK-79 3.9 18:58:08 10° WNW 19:02:06 54° N 19:02:07 54° NNE
STARLINK-1019 4.1 18:59:39 10° WNW 19:02:28 43° NNW 19:02:28 43° NNW
Cosmos 2369 Rocket 4.4 18:58:55 10° W 19:03:19 22° NW 19:07:44 10° N
STARLINK-78 3.9 18:59:48 10° WNW 19:03:43 54° N 19:03:43 54° N
Cosmos 2195 Rocket 4.3 18:58:31 10° N 19:04:41 79° E 19:08:27 25° SSE
SWAS 4.3 19:00:28 10° NNW 19:04:46 83° ENE 19:04:48 83° ENE
USA 186 3.4 19:05:54 28° WNW 19:05:54 28° WNW 19:07:49 10° NNW
STARLINK-1012 4.1 19:01:53 10° WNW 19:04:37 42° NNW 19:04:37 42° NNW
STARLINK-57 3.9 19:01:33 10° WNW 19:05:23 55° N 19:05:23 55° N
STARLINK-1037 4.1 19:01:29 10° W 19:05:32 50° N 19:05:48 49° N
SJ 16-02 3.5 19:02:32 10° NW 19:06:09 25° W 19:09:44 10° SSW
STARLINK-1056 3.6 19:02:55 10° WSW 19:07:03 75° NNW 19:07:06 75° NNW
STARLINK-49 3.9 19:03:06 10° WNW 19:06:54 55° N 19:06:54 55° N
NOSS 3-2 (A) 3.9 18:59:54 10° NW 19:07:19 84° NE 19:10:56 38° SE
STARLINK-48 3.7 19:04:03 10° WNW 19:07:38 64° WSW 19:07:38 64° WSW
Cosmos 841 Rocket 3.4 19:03:01 10° SSW 19:08:10 90° SE 19:13:24 10° NNE
Cosmos 1763 Rocket 4.2 19:03:34 10° SW 19:08:42 55° WNW 19:13:57 10° NNE
STARLINK-27 4.0 19:04:45 10° WNW 19:08:28 55° N 19:08:28 55° N
STARLINK-1026 4.3 19:06:19 10° WNW 19:08:53 39° NNW 19:08:53 39° NNW
STARLINK-1023 4.5 19:06:37 10° WNW 19:08:53 35° NW 19:08:53 35° NW
ARGOS 3.5 19:04:41 10° S 19:10:04 65° WSW 19:15:30 10° NNW
Resurs 01 Rocket 2.3 19:11:23 41° NNE 19:11:23 41° NNE 19:14:35 10° N
Cosmos 2298 Rocket 4.0 19:05:01 10° NNW 19:10:24 84° WSW 19:12:02 46° SSE
STARLINK-74 4.0 19:06:25 10° WNW 19:10:04 54° N 19:10:04 54° N
STARLINK-1059 4.2 19:06:35 10° W 19:10:37 50° N 19:10:40 50° N
NOSS 3-2 (C) 4.0 19:03:50 10° NW 19:11:09 69° NE 19:13:51 44° ESE
STARLINK-1013 4.4 19:08:34 10° WNW 19:11:03 38° NW 19:11:03 38° NW
STARLINK-1054 3.7 19:07:53 10° WSW 19:11:52 71° NW 19:11:52 71° NW
STARLINK-39 4.0 19:08:04 10° WNW 19:11:38 54° NNW 19:11:38 54° NNW
STARLINK-26 4.3 19:09:43 10° WNW 19:12:15 43° W 19:12:15 43° W
STARLINK-31 4.1 19:09:46 10° WNW 19:13:16 53° NNW 19:13:16 53° NNW
STARLINK-61 4.0 19:10:06 10° WNW 19:13:22 58° NW 19:13:22 58° NW
ARGOS Delta rocket 4.0 19:13:10 36° SSW 19:14:51 64° W 19:19:22 10° NNW
Cosmos 2208 Rocket 4.2 19:09:56 10° SSW 19:15:20 75° WNW 19:20:42 10° NNE
SPOT 3 Rocket 3.6 19:13:10 35° S 19:15:23 78° WSW 19:20:39 10° NNW
STARLINK-69 4.1 19:11:36 10° WNW 19:15:02 53° NNW 19:15:02 53° NNW
STARLINK-1057 4.2 19:11:35 10° WNW 19:15:27 49° NNW 19:15:27 49° NNW
Meteor 1-11 Rocket 3.5 19:10:14 10° S 19:15:45 69° E 19:21:16 10° NNE
STARLINK-1062 3.9 19:12:52 10° WSW 19:16:39 65° NW 19:16:39 65° NW
STARLINK-21 4.2 19:13:05 10° WNW 19:16:28 52° NNW 19:16:28 52° NNW
STARLINK-45 4.2 19:14:58 10° WNW 19:18:15 51° NNW 19:18:15 51° NNW
CENTAUR R/B 3.2 19:12:22 10° NW 19:20:09 66° NE 19:22:39 48° ESE
STARLINK-70 4.3 19:16:31 10° WNW 19:19:45 50° NW 19:19:45 50° NW
STARLINK-1034 4.4 19:16:34 10° WNW 19:20:13 47° NNW 19:20:13 47° NNW
Cosmos 389 Rocket 4.2 19:17:56 10° NNW 19:19:48 28° NNW 19:19:48 28° NNW
STARLINK-1053 4.1 19:17:53 10° W 19:21:26 58° WNW 19:21:26 58° WNW
STARLINK-76 4.3 19:18:03 10° WNW 19:21:13 48° NW 19:21:13 48° NW
STARLINK-23 4.4 19:19:42 10° WNW 19:22:49 47° NW 19:22:49 47° NW
CZ-2C R/B 4.0 19:19:36 10° S 19:25:15 52° W 19:30:44 10° NNW
STARLINK-32 4.5 19:21:20 10° WNW 19:24:23 46° NW 19:24:23 46° NW
STARLINK-1061 4.3 19:22:51 10° W 19:26:12 52° WNW 19:26:12 52° WNW
Cosmos 2150 Rocket 4.3 19:21:44 10° NNW 19:27:07 68° WSW 19:28:22 51° S
SJ-6B 4.3 19:29:20 30° WSW 19:30:00 33° W 19:33:29 10° NNW
Cosmos 1125 Rocket 3.5 19:27:01 10° NNW 19:32:01 77° N 19:32:01 77° N
Cosmos 540 Rocket 3.8 19:29:42 10° SW 19:34:47 64° WNW 19:39:56 10° NNE
ATLAS 3B R/B 2.9 19:28:31 10° NW 19:35:04 52° NE 19:35:31 51° NE
Cosmos 1066 Rocket 4.2 19:36:30 10° N 19:42:00 79° NNE 19:42:00 79° NNE
Cosmos 2297 Rocket 2.5 19:40:45 10° NW 19:46:19 59° WSW 19:46:50 57° SW
Terra 4.3 19:57:30 12° N 19:57:30 12° N 19:57:56 10° N
ATLAS 2AS CENTAUR R/B 4.4 19:51:08 10° SSW 19:53:45 23° S 19:53:45 23° S
Cosmos 2227 Rocket 2.9 19:59:58 10° NW 20:05:17 47° WSW 20:05:17 47° WSW
USA 238 DEB 4.4 20:01:11 10° NW 20:08:02 48° WSW 20:09:21 44° SSW
USA 238 4.4 20:01:17 10° NW 20:08:08 49° WSW 20:09:24 44° SSW
Cosmos 2082 4.3 20:05:59 10° NNW 20:10:30 54° WNW 20:10:30 54° WNW
Lacrosse 5 rocket 3.9 20:22:08 10° WNW 20:23:51 21° WNW 20:23:51 21° WNW
Lacrosse 5 3.9 20:32:38 10° W 20:34:53 24° WNW 20:34:53 24° WNW
CZ-2C R/B 4.4 20:35:49 10° N 20:38:39 28° NNW 20:38:39 28° NNW
USA 234 3.8 20:42:41 54° NW 20:42:41 54° NW 20:47:36 10° NW
Cosmos 2263 Rocket 4.0 20:38:59 10° NNW 20:41:27 26° NNW 20:41:27 26° NNW
Resurs 01 Rocket 4.4 20:48:57 15° WNW 20:48:57 15° WNW 20:50:14 10° NW
CENTAUR R/B 3.9 21:03:19 10° NW 21:09:51 43° W 21:09:51 43° W
ATLAS 3B R/B 4.2 21:19:21 10° NW 21:22:47 30° WNW 21:22:47 30° WNW
